Regional Weather Roundup
Issued by NWS San Diego, CA

Home | Current Version | Previous Version | Text Only | Print | Product List | Glossary On
Versions: 1 2 3 4 5 6 7 8 9 10 11 12 13 14 15 16 17 18 19 20 21 22 23 24 25 26 27 28 29 30 31 32 33 34 35 36 37 38 39 40 41 42 43 44 45 46 47 48 49 50
000
ASUS46 KSGX 012010
RWRSGX

SAN DIEGO HOURLY WEATHER ROUNDUP
NATIONAL WEATHER SERVICE SAN DIEGO CA
1200 PM PST SUN FEB 01 2015

NOTE: "FAIR" INDICATES FEW OR NO CLOUDS BELOW 12,000 FEET WITH NO
SIGNIFICANT WEATHER AND/OR OBSTRUCTIONS TO VISIBILITY.

CAZ042-043-060-061-PZZ750-775-012100-

GREATER SAN DIEGO AREA

CITY           SKY/WX    TMP DP  RH WIND       PRES   REMARKS
LINDBERGH FLD  MOSUNNY   68  53  58 W7        30.10F
POINT LOMA       N/A     64  52  65 NW15        N/A
NATIONAL CITY    N/A     70  53  54 SW6       30.09F
CHULA VISTA      N/A     70  52  51 W2        30.02F
IMPERIAL BEACH SUNNY     72  48  42 W8        30.09F
BROWN FIELD    SUNNY     74  41  30 VRB5      30.08F
MIRAMAR MCAS   MOSUNNY   75  45  34 W7        30.08F
MONTGOMERY FLD SUNNY     74  51  44 W7        30.08F

$$

NORTH SAN DIEGO COUNTY

CITY           SKY/WX    TMP DP  RH WIND       PRES   REMARKS
CAMP PENDLETON MOSUNNY   72  47  40 W10       30.09F
OCEANSIDE AP   SUNNY     66  54  65 W9        30.08F
OCEANSIDE HBR    N/A     63  56  77 W3        30.13F
VISTA            N/A     71  50  47 W2        30.08F
CARLSBAD       SUNNY     65  48  54 W10       30.09F
DEL MAR          N/A     65  56  71 W3        30.12F
LA JOLLA SCRIP   N/A     61  58  89 CALM      30.07F
FALLBROOK        N/A     73  50  44 S1        30.10F
ESCONDIDO        N/A     75  46  35 W3        30.10F
SAN MARCOS       N/A     71  51  49 W8        30.08F
POWAY            N/A     74  50  42 W3        30.11F

$$

EAST SAN DIEGO COUNTY

CITY           SKY/WX    TMP DP  RH WIND       PRES   REMARKS
RAMONA         SUNNY     72  38  29 NW9       30.10F
SANTEE LAKES     N/A     76  48  36 E9        30.08F
LA MESA          N/A     72  46  38 W6        30.03F
JAMUL            N/A     71  48  43 W1        30.09F
DESCANSO N       N/A     65  32  29 E1        30.05F
MT. LAGUNA OBS   N/A     46  25  43 E14       29.76S
CAMPO            N/A     67  31  26 NE18G29   30.07F

$$

ORANGE COUNTY AND THE LOS ANGELES BASIN

CITY           SKY/WX    TMP DP  RH WIND       PRES   REMARKS
JOHN WAYNE AP  MOSUNNY   73  49  42 CALM      30.10F
LAGUNA BEACH     N/A     66  58  74 CALM      30.07F
LAKE FOREST FR   N/A     72  48  42 W3        30.01F
SANTA ANA        N/A     75  53  45 CALM      30.06F
HUNTINGTON BCH   N/A     68  61  78 S3        30.13F
LOS ALAMITOS   MOSUNNY   71  54  55 SW2       30.10F
FULLERTON      SUNNY     72  45  37 SW3       30.10F
LONG BEACH     SUNNY     72  51  47 CALM      30.10F
L.A. AP        MOSUNNY   68  49  50 CALM      30.10F
L.A. DOWNTOWN  SUNNY     73  46  38 CALM      30.10F

$$

THE INLAND EMPIRE

CITY           SKY/WX    TMP DP  RH WIND       PRES   REMARKS
CORONA         SUNNY     71  46  40 CALM      30.11F
CHINO          MOSUNNY   72  39  30 CALM      30.12F
ONTARIO        MOSUNNY   71  42  35 CALM      30.11F
SAN BERNARDINO MOSUNNY   70  32  24 W7        30.12S
RIVERSIDE AP   SUNNY     71  38  29 VRB3      30.11F
RIV CYN CREST    N/A     71  52  51 SW2         N/A
MORENO VALLEY    N/A     70  46  40 CALM      29.32F
MARCH ARB      SUNNY     68  38  33 VRB1      30.12F
HORSETHIEF CYN   N/A     71  33  25 NW3       30.11F
PERRIS           N/A     67  46  45 CALM        N/A
MENIFEE          N/A     70  47  44 W5        30.20F
HEMET EAST       N/A     65  37  35 CALM      30.13F
FRENCH VALLEY  FAIR      70  46  43 N5        30.11F
TEMECULA         N/A     68  51  54 E1        30.06F

$$

SAN BERNARDINO AND RIVERSIDE COUNTY MOUNTAINS

CITY           SKY/WX    TMP DP  RH WIND       PRES   REMARKS
BIG BEAR AP    SUNNY     52  10  19 NE6       30.27F
PINE COVE        N/A     55  34  45 CALM      30.21F

$$

SOUTHERN DESERT INCLUDING THE COACHELLA VALLEY

CITY           SKY/WX    TMP DP  RH WIND       PRES   REMARKS
PALM SPRINGS   SUNNY     79  30  16 E3        30.10F
THOUSAND PALMS   N/A     78  38  23 CALM      30.09
PALM DESERT      N/A     79  41  25 CALM      26.43S
THERMAL        SUNNY     76  40  27 S9        30.07F
BLYTHE         SUNNY     68  42  38 E6        30.11F
IMPERIAL AP    SUNNY     74  36  25 CALM      30.08F
EL CENTRO NAS  SUNNY     75  33  21 N5        30.09F
YUMA AZ        SUNNY     72  43  35 NW9       30.09F
MEXICALI       SUNNY     72  36  26 N6        30.10

$$

UPPER DESERT

CITY           SKY/WX    TMP DP  RH WIND       PRES   REMARKS
VICTORVILLE AP MOSUNNY   63  30  29 N6        30.20S
HESPERIA         N/A     61  37  41 CALM      30.34F
APPLE VALLEY     N/A     62  34  34 NW3       30.19F
PALMDALE       SUNNY     59  37  44 NW3       30.19F
LANCASTER      SUNNY     62  37  39 CALM      30.19F
EDWARDS AFB    MOSUNNY   58  41  53 CALM      30.17F
DAGGETT        SUNNY     66  30  26 NW7       30.17F
29 PALMS N     SUNNY     65  35  33 CALM      30.22F
NEEDLES        SUNNY     70  28  21 N15       30.12F

$$

REGIONAL REPORTS

CITY           SKY/WX    TMP DP  RH WIND       PRES   REMARKS
SANTA BARBARA  SUNNY     68  55  63 SE8       30.10F
SANDBERG       SUNNY     63  28  26 NE8       30.24F
MT. WILSON       N/A     63  32  31 MISG        N/A
LAS VEGAS NV   MOSUNNY   62  26  25 E7        30.13F
PHOENIX AZ     MOSUNNY   60  53  77 W6        30.07F
TIJUANA        SUNNY     73  36  25 CALM      30.11F

$$

OFFSHORE ISLANDS

CITY           SKY/WX    TMP DP  RH WIND       PRES   REMARKS
CATALINA ARPT  SUNNY     67  38  34 W9        30.14F
SAN NICOLAS IS SUNNY    N/A N/A N/A CALM      30.12F

$$

MARINE AND OFFSHORE BUOY REPORTS

STATION/POSITION SKY/WX   TEMP    WIND        PRES    SWELL
                          AIR SEA DIR/SP/G            HT/PER/DIR
                          (F)     (DEG/KT/KT) (MB)    (FT/S/D)
TANNER BANKS               62 62  310/  8/ 10 1019.9F   7/270/14
S CLEMENTE BASIN           63 63  310/  4/  6 1019.4F   3/280/14
SAN NICOLAS IS.               62                N/A     3/290/14
SO. S. ROSA ISLA           60 61  300/ 10/ 14 1019.7F   5/13
W. S. BARBARA CH           60 60  330/ 10/ 12 1019.5F   5/280/11
S. MONICA BASIN            62 63   80/  8/  8 1020.1F   3/250/13
S PEDRO CHANNEL               63                N/A     2/260/13
DANA POINT                    63                N/A     2/250/13
CMP PENDLETON NS              62                N/A     2/250/14
OCEANSIDE OFFSHR              63                N/A     2/260/14
TORREY PINES OTR              63                N/A     2/270/13
LA JOLLA 1                 65 62  300/  3/  3 1019.4F
SAN DIEGO BAY                 62              1019.4F
POINT LOMA SOUTH              63                N/A     2/250/13

$$



USA.gov is the U.S. government's official web portal to all federal, state and local government web resources and services.